Погода в Спрингфилде

США     37°11′22″N   93°16′41″W
темп.,
°C
ветер,
м/с
пор.,
м/с
влажн.,
%
обл.,
%
осадки,
мм/ч
давл.,
гПа
погр.,
м
21 октября, чт
чт2101:00+10зсз411780 0.3 1019236
04:00+9зсз412690 0.0 1020363
07:00+7зсз412720 0.0 1021361
10:00+10сз610635 0.0 1022529
13:00+15зсз69481 0.0 1021943
16:00+16сз69431 0.0 10191101
19:00+11сз365981 0.0 1020159
22:00+9сз2466100 0.0 102173
22 октября, пт
пт2201:00+8сз227275 0.0 102143
04:00+7з117415 0.0 102012
07:00+7з11750 0.0 102015
10:00+13зюз22520 0.0 1020254
13:00+19зюз23375 0.0 1017718
16:00+21юз34390 0.0 10141114
19:00+15ююв225814 0.0 101420
22:00+15ю345897 0.0 101595
23 октября, сб
сб2301:00+15ю4958100 0.0 1014214
04:00+15ю4958100 0.0 1013219
07:00+14ю3971100 0.3 1013189
10:00+14ююз3593100 4.4 1014152
13:00+16ююв5990100 9.7 1012334
16:00+19ююв6109086 5.5 1010452
19:00+18ююв5129484 7.3 1009259
22:00+18ююв6149349 0.1 1009377
24 октября, вс
вс2401:00+18ююв616896 0.1 1008430
04:00+17ю6179024 0.0 1008562
07:00+18ю718885 0.0 1007741
10:00+21ююз8178395 0.0 1008864
13:00+26ююз916573 0.0 10061315
16:00+25юз81566100 0.0 10061496
19:00+21ююз71583100 0.6 1007838
22:00+19ююз6169596 3.6 1008525
25 октября, пн
пн2501:00+18з499892 4.9 1010460
04:00+17ссв1286100 0.0 101158
07:00+17ю1181100 0.1 101117
10:00+19ююз1185100 0.0 1012176
13:00+21ю2488100 0.1 1010471
16:00+23ююз4882100 0.2 1009468
19:00+21ююв4990100 0.3 1009311
22:00+21ююв61492100 0.0 1008449